Temp
62 64 66 72 70 68 68 70 69 69 73 70 69 68 66 66 67 70 73 68 66 62 60 57 57 56 55 54 54 51 51 48 48 48 51 49 49 50 50 50 50 52 52
61 64 64 63 64 67 65 67 69 71 72 71 70 67 61 58 59 63 65 64 59 58 57 56 54 54 53 53 53 52 48 49 49 48 47 46 48 48 50 48 50 47 48
58 59 61 63 63 63 64 66 67 68 72 68 61 58 56 55 54 52 53 55 56 56 55 52 52 50 50 50 50 53 50 48 47 46 45 42 43 42 48 49 47 47 45
58 60 61 60 61 63 64 65 67 66 68 64 62 62 62 59 54 50 51 52 54 54 56 54 52 52 53 52 50 54 51 49 46 46 49 44 42 38 39 44 45 44 46
57 59 60 62 62 62 60 61 64 65 67 66 66 63 60 51 50 50 50 50 52 55 56 55 55 54 52 53 51 51 50 49 46 45 43 42 40 39 37 35 38 41 42
54 57 59 61 59 58 59 60 62 62 64 68 62 61 54 50 50 49 47 49 50 50 54 55 53 53 52 51 50 50 47 44 44 43 41 41 39 37 35 33 34 34 37
54 56 55 57 57 58 59 59 61 61 61 60 60 57 54 52 51 50 48 48 48 49 52 53 53 51 51 51 49 47 45 42 42 42 41 41 40 40 38 35 32 31 33
54 54 55 57 57 58 58 58 60 60 58 58 56 54 52 50 49 49 49 51 51 51 51 53 52 51 51 50 47 45 43 41 40 41 40 40 40 40 38 36 32 28 29
52 52 55 57 57 56 58 57 57 58 57 55 53 51 50 49 48 48 49 50 50 51 53 51 51 50 50 49 46 42 44 41 41 40 39 38 38 38 37 36 34 31 25
53 53 53 55 55 55 57 57 57 57 56 54 52 50 49 48 48 49 48 51 53 53 51 51 50 50 49 48 46 45 44 44 41 41 39 38 37 37 36 34 34 32 29
50 52 56 53 54 55 56 56 57 55 53 53 50 48 47 48 48 49 51 53 53 52 51 50 50 48 48 47 45 44 44 42 40 39 39 39 38 35 34 33 33 31 29
49 50 50 53 53 54 56 57 55 55 52 50 48 48 47 49 49 50 52 53 52 52 51 50 49 48 47 46 45 44 42 41 40 39 38 37 41 35 33 32 31 30 30
49 50 48 50 50 51 52 56 56 51 49 48 48 49 49 50 48 51 52 52 51 51 50 49 47 47 45 44 44 43 42 40 40 39 38 36 35 33 32 31 30 30 35
50 51 51 46 50 52 53 55 51 49 48 48 49 48 49 48 50 51 51 50 50 49 48 47 46 45 44 44 41 41 39 39 39 38 37 36 35 33 32 32 31 32 28
49 50 47 45 47 51 52 51 48 48 49 48 47 48 49 50 50 48 48 48 48 47 46 44 44 43 42 42 38 39 38 37 35 35 36 36 38 43 42 38 31 30 28
47 48 45 44 42 45 46 47 46 46 48 48 47 47 48 48 47 47 46 45 45 44 43 42 42 39 43 44 44 41 37 35 33 33 34 34 39 38 43 43 43 41 34
47 45 44 45 44 41 44 43 45 48 47 47 46 47 46 43 42 43 43 41 42 42 40 40 38 38 39 43 43 42 35 33 32 32 32 33 38 36 32 37 41 40 41
44 44 44 45 46 47 47 47 47 47 46 45 45 43 40 39 40 42 42 40 40 38 37 38 39 39 40 42 42 41 33 32 32 32 31 30 30 32 37 34 30 31 30
44 44 44 44 45 45 46 46 45 45 44 42 41 40 38 39 40 38 37 38 39 38 39 39 38 36 35 42 41 38 32 32 30 32 32 33 32 38 41 35 29 29 30
43 42 43 43 42 43 44 42 41 40 39 40 40 37 39 39 39 41 40 39 40 39 39 38 36 39 34 42 42 39 32 30 30 30 30 37 37 40 41 36 32 28 28
41 41 40 39 41 41 40 37 36 33 35 38 40 39 39 40 41 40 40 39 38 37 35 34 33 33 34 34 43 43 34 31 28 28 30 31 38 39 40 39 32 31 35
38 40 39 38 38 40 38 35 33 33 35 37 36 37 39 41 41 39 38 37 35 33 32 31 30 31 32 39 40 41 40 39 30 29 29 30 38 38 37 35 37 38 36
36 39 36 36 36 38 38 34 33 33 33 35 37 39 41 41 40 37 35 34 33 31 30 30 28 28 30 29 37 38 38 37 33 31 35 37 36 35 32 34 35 34 27
39 41 40 39 37 38 39 38 39 40 39 39 38 39 38 36 35 33 33 31 30 29 29 28 26 25 26 27 28 30 28 33 32 33 27 33 33 32 31 29 29 27 26
42 42 42 39 37 38 38 39 40 40 38 38 37 36 34 32 31 31 31 29 30 31 29 27 27 25 24 29 35 34 32 32 34 33 26 25 25 24 25 26 26 26 26
42 40 39 36 34 36 37 39 40 40 38 37 33 32 31 31 31 30 29 38 37 38 37 37 33 30 35 37 37 37 37 37 35 26 23 22 22 22 23 23 23 23 24
MSLP
1006.23 1006.13 1006.05 1005.84 1006.04 1006.17 1006.36 1006.54 1006.78 1007.40 1007.70 1008.65 1009.26 1010.11 1010.75 1011.06 1011.47 1011.40 1011.80 1012.64 1013.28 1014.13 1014.78 1015.58 1016.18 1016.65 1017.20 1017.78 1018.31 1018.80 1019.29 1019.77 1019.72 1019.24 1019.79 1019.96 1019.64 1019.82 1020.00 1020.16 1020.31 1020.41 1020.43
1005.83 1005.60 1005.64 1005.92 1005.98 1005.83 1006.11 1006.20 1006.40 1006.54 1007.11 1007.92 1008.64 1009.33 1010.19 1011.01 1011.40 1011.50 1011.92 1012.43 1013.24 1013.85 1014.61 1015.46 1016.25 1016.82 1017.37 1017.86 1018.24 1018.40 1019.34 1019.85 1019.83 1019.53 1020.09 1020.56 1020.45 1020.17 1020.17 1020.33 1020.44 1020.58 1020.53
1005.56 1005.52 1005.60 1005.47 1005.67 1005.80 1005.70 1005.95 1006.12 1006.27 1006.25 1006.91 1008.31 1009.63 1010.68 1011.47 1012.02 1012.34 1012.59 1012.99 1013.29 1013.94 1014.55 1015.57 1016.40 1017.02 1017.44 1017.93 1018.43 1018.63 1019.10 1019.95 1019.98 1019.83 1020.35 1021.05 1021.20 1021.15 1020.63 1020.56 1020.63 1020.76 1020.87
1004.92 1004.98 1005.12 1005.20 1005.17 1005.16 1005.07 1005.32 1005.67 1006.04 1006.13 1006.69 1007.41 1008.30 1009.50 1011.25 1011.86 1012.11 1012.69 1013.41 1013.66 1014.17 1014.53 1015.44 1016.45 1017.07 1017.65 1018.05 1018.60 1018.66 1018.87 1019.22 1019.86 1020.10 1020.69 1021.08 1021.32 1021.67 1021.64 1021.07 1021.03 1021.08 1021.05
1004.55 1004.57 1004.62 1004.46 1004.65 1004.80 1004.96 1005.05 1005.07 1005.35 1005.73 1006.23 1006.66 1007.72 1009.15 1010.60 1011.86 1012.58 1013.06 1013.68 1014.24 1014.54 1014.98 1015.31 1016.42 1017.13 1017.81 1018.17 1018.66 1018.80 1018.79 1019.44 1019.70 1020.31 1021.14 1021.45 1021.65 1021.90 1022.26 1022.27 1021.85 1021.42 1021.16
1004.42 1004.37 1004.27 1004.30 1004.56 1004.85 1004.96 1004.89 1005.02 1005.29 1005.22 1005.49 1006.47 1007.24 1008.61 1010.23 1011.87 1012.87 1013.24 1013.88 1014.46 1014.88 1015.28 1015.62 1016.58 1017.31 1017.95 1018.54 1018.99 1019.00 1019.09 1019.90 1019.81 1020.46 1021.15 1021.52 1022.04 1022.36 1022.42 1022.82 1022.56 1022.39 1021.67
1004.54 1004.36 1004.39 1004.68 1004.65 1004.71 1004.94 1005.06 1005.09 1005.15 1005.22 1005.41 1006.14 1007.20 1008.30 1009.34 1010.68 1011.95 1012.88 1013.68 1014.43 1014.89 1015.11 1015.79 1016.64 1017.45 1018.12 1018.74 1018.92 1019.10 1019.90 1019.84 1020.27 1020.83 1021.39 1021.53 1021.94 1022.13 1022.34 1022.83 1023.00 1022.91 1022.05
1005.01 1004.80 1004.61 1004.60 1004.68 1004.82 1004.82 1004.73 1004.82 1005.10 1005.23 1005.70 1006.30 1007.37 1008.38 1009.80 1010.94 1011.84 1012.62 1013.37 1014.01 1014.64 1015.12 1015.88 1016.67 1017.36 1018.18 1018.99 1019.30 1019.73 1020.12 1020.08 1020.67 1021.08 1021.42 1021.65 1021.85 1022.02 1022.31 1022.71 1023.13 1023.09 1022.67
1006.17 1006.00 1005.78 1005.36 1005.04 1004.92 1004.86 1004.71 1004.79 1004.83 1005.39 1005.84 1006.46 1007.54 1008.36 1009.48 1010.76 1012.17 1012.99 1013.58 1013.96 1014.62 1015.12 1015.92 1016.82 1017.53 1018.25 1019.06 1019.53 1019.81 1020.27 1020.84 1020.86 1021.15 1021.50 1021.74 1021.90 1022.03 1022.23 1022.41 1022.80 1023.15 1023.11
1006.05 1005.91 1005.85 1005.66 1005.37 1005.29 1004.93 1004.17 1004.46 1004.85 1005.28 1005.84 1006.55 1007.43 1008.52 1009.76 1010.86 1012.04 1012.92 1013.59 1014.39 1014.84 1015.40 1016.13 1016.89 1017.62 1018.27 1018.97 1019.66 1019.88 1020.09 1020.89 1020.86 1021.12 1021.45 1021.79 1021.94 1022.02 1022.19 1022.30 1022.44 1022.63 1022.81
1006.22 1005.83 1005.52 1005.42 1005.22 1004.94 1004.69 1004.55 1003.99 1004.68 1005.70 1006.32 1006.98 1007.82 1008.91 1009.75 1010.69 1011.76 1012.74 1013.35 1014.41 1015.01 1015.58 1016.21 1017.11 1017.92 1018.57 1019.01 1019.54 1020.01 1020.24 1020.69 1020.71 1021.12 1021.46 1021.72 1021.85 1021.96 1022.04 1022.10 1022.10 1022.18 1022.31
1006.17 1006.03 1005.78 1005.34 1004.85 1004.47 1004.16 1003.88 1003.92 1004.35 1005.44 1006.51 1007.31 1008.34 1009.21 1010.10 1010.80 1011.58 1012.64 1013.59 1014.45 1015.18 1015.81 1016.46 1017.33 1018.15 1018.75 1019.19 1019.92 1020.33 1020.33 1020.57 1020.81 1021.23 1021.36 1021.54 1021.62 1021.73 1021.73 1021.78 1021.85 1021.97 1021.85
1006.04 1005.57 1005.26 1004.89 1004.27 1003.71 1003.47 1003.36 1003.30 1004.18 1005.35 1006.40 1007.56 1008.60 1009.36 1010.37 1011.24 1011.63 1012.72 1013.84 1014.63 1015.47 1016.17 1016.81 1017.65 1018.36 1018.92 1019.59 1019.92 1020.37 1020.52 1020.78 1020.89 1021.20 1021.20 1021.33 1021.46 1021.58 1021.48 1021.49 1021.55 1021.42 1021.07
1006.11 1005.77 1005.44 1004.90 1003.37 1001.92 1002.21 1003.05 1004.09 1004.37 1005.57 1006.64 1007.78 1008.70 1009.58 1010.63 1011.49 1012.15 1012.96 1014.10 1014.92 1015.90 1016.45 1017.20 1018.00 1018.88 1019.10 1019.45 1020.21 1020.38 1020.85 1021.01 1021.03 1021.15 1021.12 1021.21 1021.21 1021.16 1021.08 1021.04 1020.92 1020.66 1020.57
1006.38 1006.19 1006.13 1005.60 1004.19 1002.33 1002.40 1003.74 1004.91 1005.53 1006.49 1007.21 1008.20 1009.00 1010.13 1010.81 1011.90 1012.69 1013.53 1014.52 1015.65 1016.22 1016.84 1017.72 1018.55 1019.06 1019.32 1020.27 1020.17 1020.60 1021.10 1021.11 1021.19 1021.18 1021.14 1020.99 1020.81 1020.63 1020.42 1020.19 1020.17 1020.09 1019.87
1006.92 1007.00 1006.81 1006.38 1006.05 1005.74 1005.01 1005.37 1006.02 1006.76 1007.32 1008.27 1008.70 1010.01 1010.89 1011.55 1012.75 1013.31 1014.29 1015.42 1016.29 1016.79 1017.36 1018.26 1018.77 1019.35 1020.14 1020.13 1020.33 1020.81 1021.11 1021.26 1021.29 1021.29 1021.01 1020.78 1020.52 1020.21 1019.94 1019.70 1019.45 1019.20 1018.87
1007.50 1007.68 1007.65 1007.38 1007.49 1007.51 1007.39 1007.07 1007.59 1007.99 1008.44 1009.23 1010.12 1011.22 1011.97 1012.98 1014.15 1014.64 1015.41 1016.28 1016.71 1017.47 1017.91 1018.53 1019.26 1019.98 1020.09 1020.19 1020.46 1020.85 1021.17 1021.23 1021.18 1021.04 1020.85 1020.59 1020.26 1019.96 1019.59 1019.25 1018.87 1018.58 1018.33
1008.20 1008.35 1008.50 1008.45 1008.44 1008.51 1008.57 1008.57 1008.91 1009.21 1009.71 1010.62 1011.81 1012.83 1013.16 1014.67 1015.38 1015.58 1016.78 1016.79 1017.47 1017.93 1018.57 1019.18 1019.62 1019.94 1020.04 1020.26 1020.65 1020.89 1021.05 1021.01 1020.94 1020.91 1020.74 1020.47 1020.05 1019.56 1018.98 1018.52 1018.27 1018.08 1017.83
1008.92 1009.11 1009.30 1009.33 1009.55 1009.65 1009.92 1010.03 1010.33 1010.75 1011.37 1012.38 1013.22 1014.07 1014.96 1015.99 1015.66 1016.69 1017.53 1017.41 1017.70 1018.39 1019.15 1019.53 1019.73 1019.91 1020.18 1020.44 1020.59 1020.70 1020.76 1020.90 1021.05 1020.82 1020.47 1020.11 1019.59 1019.16 1018.45 1017.94 1017.81 1017.49 1017.03
1009.62 1009.84 1009.95 1010.13 1010.35 1010.85 1010.92 1011.21 1012.13 1012.76 1013.58 1014.25 1014.90 1015.36 1015.40 1016.50 1016.86 1017.20 1017.27 1017.86 1018.44 1019.01 1019.25 1019.56 1019.74 1019.97 1020.23 1020.33 1020.30 1020.30 1020.68 1020.96 1020.77 1020.38 1020.06 1019.72 1019.20 1018.59 1018.00 1017.45 1017.19 1016.88 1016.55
1010.36 1010.69 1010.82 1010.99 1011.30 1011.94 1012.23 1012.85 1013.65 1014.69 1015.17 1015.69 1016.06 1016.72 1017.20 1017.14 1017.49 1017.26 1017.70 1018.42 1018.73 1019.11 1019.62 1019.89 1020.09 1020.21 1020.26 1020.24 1020.20 1020.24 1020.34 1020.48 1020.47 1020.25 1019.80 1019.39 1018.88 1018.12 1017.55 1017.13 1016.86 1016.48 1015.67
1011.42 1011.55 1011.81 1012.31 1012.73 1012.62 1012.84 1013.67 1014.47 1015.82 1016.17 1016.65 1016.73 1017.30 1017.67 1017.62 1017.73 1017.71 1018.32 1018.76 1019.28 1019.70 1020.03 1020.28 1020.45 1020.50 1020.52 1020.50 1020.42 1020.30 1020.28 1020.14 1020.16 1019.96 1019.55 1019.06 1018.40 1017.88 1017.40 1016.97 1016.54 1015.93 1015.56
1012.06 1012.18 1012.71 1013.33 1013.74 1013.91 1013.83 1014.66 1015.33 1016.29 1016.87 1017.30 1017.45 1017.96 1017.97 1018.05 1018.19 1018.38 1018.92 1019.43 1019.79 1020.06 1020.35 1020.56 1020.85 1021.03 1020.95 1020.84 1020.68 1020.47 1020.25 1020.14 1019.81 1019.54 1019.06 1018.55 1018.23 1017.88 1017.47 1017.00 1016.45 1016.11 1015.97
1011.68 1012.28 1012.72 1013.39 1014.01 1014.53 1014.93 1015.24 1015.86 1016.52 1017.02 1017.35 1017.75 1018.10 1018.34 1018.58 1018.77 1019.03 1019.42 1019.91 1020.17 1020.40 1020.65 1020.91 1021.16 1021.23 1021.23 1020.98 1020.58 1020.29 1020.07 1019.80 1019.40 1019.00 1018.76 1018.51 1018.27 1017.90 1017.51 1017.09 1016.62 1016.26 1015.83
1011.65 1012.18 1012.82 1013.53 1014.34 1014.82 1015.25 1015.70 1016.11 1016.55 1017.15 1017.81 1018.25 1018.46 1018.60 1018.89 1019.34 1019.72 1019.99 1020.26 1020.41 1020.52 1020.71 1021.01 1021.20 1021.19 1021.06 1020.82 1020.36 1020.08 1019.71 1019.30 1018.99 1018.71 1018.75 1018.59 1018.27 1017.89 1017.49 1017.01 1016.54 1016.04 1015.54
1011.75 1012.50 1013.34 1014.17 1014.79 1015.25 1015.70 1016.11 1016.44 1016.80 1017.43 1017.97 1018.36 1018.71 1019.06 1019.48 1019.82 1020.08 1020.40 1020.41 1020.51 1020.58 1020.71 1020.82 1020.87 1020.80 1020.65 1020.37 1020.15 1019.84 1019.41 1019.14 1019.05 1019.08 1019.06 1018.76 1018.42 1018.09 1017.61 1016.95 1016.32 1015.86 1015.28
Wind_Speed
10 9 10 14 11 9 9 9 10 8 11 9 10 8 7 5 4 8 13 11 11 10 9 6 7 6 6 6 6 4 4 3 2 3 3 3 1 2 2 3 3 4 3
9 10 8 7 8 9 8 8 8 12 10 10 8 5 4 3 3 2 6 9 9 10 9 9 6 7 6 6 5 4 3 2 2 3 3 2 4 3 3 1 2 3 2
11 9 9 10 9 8 9 8 8 9 10 10 8 6 6 3 3 2 5 5 11 9 11 8 7 6 5 5 3 3 4 3 2 6 4 2 2 2 3 1 0 3 2
8 9 9 8 9 9 8 9 9 9 8 11 10 16 11 9 3 3 5 5 7 10 12 11 8 6 4 5 3 4 3 4 3 3 4 3 3 2 4 3 2 3 3
9 10 10 9 8 7 8 7 7 10 9 10 13 11 11 5 6 6 11 8 7 8 9 11 8 7 4 5 5 4 5 1 4 3 2 3 2 2 2 3 4 4 3
1 4 4 4 3 3 3 4 5 7 8 13 12 15 16 14 11 9 8 7 6 6 8 10 8 7 6 5 4 5 7 3 5 4 3 2 2 1 2 1 3 4 4
3 3 3 2 3 4 5 4 3 4 7 8 13 14 14 16 18 15 10 12 8 7 9 11 10 7 7 5 5 6 4 5 4 4 2 2 2 2 2 2 3 3 3
7 4 4 2 4 7 6 6 6 5 5 10 12 12 15 9 8 7 9 8 9 9 10 11 10 10 8 5 5 4 3 6 4 5 3 2 1 1 2 3 2 4 3
9 10 11 8 4 5 6 7 7 5 7 11 12 12 12 14 12 10 8 7 9 9 12 11 11 9 8 6 6 4 4 3 4 3 2 1 0 1 1 1 3 3 4
9 7 6 7 7 7 8 8 8 8 10 13 11 12 13 12 13 11 11 12 10 11 12 12 11 9 9 8 5 4 5 4 2 2 2 1 1 1 1 2 2 3 4
8 9 13 7 8 8 8 9 8 9 10 11 12 14 13 14 14 12 13 13 12 13 13 12 10 8 7 6 6 5 5 4 3 1 2 2 2 2 2 2 2 3 2
7 8 10 13 12 12 12 12 9 12 14 14 14 13 14 14 14 14 13 13 13 12 12 11 10 8 6 6 5 3 4 3 2 2 2 3 2 3 3 2 4 3 4
8 8 8 11 11 11 8 9 12 16 16 15 15 15 15 14 13 15 15 14 13 12 11 10 9 8 7 6 6 4 3 1 0 2 3 4 4 4 3 3 4 4 5
8 10 11 11 16 15 15 10 12 16 16 16 16 16 15 14 13 15 16 14 13 11 11 10 9 7 7 6 5 5 4 3 3 4 4 4 4 4 5 5 6 5 4
8 9 6 9 14 11 14 15 13 14 14 16 15 15 15 14 14 14 14 14 11 11 11 10 7 6 7 3 5 5 3 4 5 5 5 4 6 11 10 5 4 5 4
6 8 5 11 14 12 13 14 13 14 14 13 16 13 14 15 14 15 14 13 11 10 10 8 7 6 4 9 8 4 3 4 4 5 6 5 9 9 13 16 18 15 8
4 7 8 10 10 10 9 13 13 13 15 14 14 14 15 14 13 13 13 12 9 8 9 7 6 5 5 8 7 6 3 3 4 5 5 6 5 9 6 12 18 16 16
6 7 6 9 10 11 12 13 12 13 15 14 14 14 15 13 11 12 10 11 8 8 6 6 5 5 4 7 5 5 3 4 5 5 5 5 6 7 11 7 6 6 7
7 8 7 10 11 12 11 12 13 13 14 14 15 15 13 10 11 11 9 8 8 7 4 4 5 6 4 5 2 3 3 4 5 5 6 7 7 14 19 11 6 7 6
8 9 10 10 12 11 13 15 14 15 14 12 12 11 9 10 10 10 9 5 6 6 4 4 4 5 4 2 2 2 1 3 4 6 6 13 14 20 21 13 9 8 8
10 10 11 12 12 12 14 15 14 13 9 9 10 10 9 8 7 9 8 6 5 5 5 5 4 3 2 1 6 7 2 3 3 4 5 5 18 21 23 22 7 9 14
9 10 11 10 10 9 14 13 13 9 7 9 10 9 6 6 6 9 6 6 5 5 4 4 3 4 5 8 8 10 11 13 4 5 5 7 19 22 21 15 19 20 16
9 9 10 9 8 8 11 12 8 10 8 9 10 9 7 6 5 7 6 4 4 4 3 3 3 3 3 4 10 12 14 14 8 5 13 19 20 19 12 17 19 16 6
11 11 12 11 10 9 9 10 11 10 10 10 8 7 7 6 5 4 4 4 4 4 3 3 3 2 3 4 4 3 4 10 9 12 5 11 14 14 13 10 9 6 6
10 11 10 10 9 9 9 9 10 10 10 8 7 6 5 6 5 4 4 4 3 3 3 2 1 2 4 4 9 10 7 7 8 12 3 5 5 7 7 7 7 7 7
11 12 11 11 9 9 9 8 8 9 10 8 5 4 4 4 4 4 4 7 6 5 4 3 1 2 6 11 13 16 18 17 18 5 5 6 6 7 8 8 9 8 10
Wind_Direction
232 232 235 231 223 226 211 206 170 188 171 167 170 179 191 181 178 157 171 153 148 143 139 132 129 132 134 145 145 126 105 26 314 86 14 349 8 163 181 183 156 177 175
251 249 244 242 226 218 217 212 197 176 178 172 181 163 157 109 110 111 116 133 131 139 135 137 136 133 127 133 148 134 129 122 314 97 100 10 341 344 269 239 194 182 142
239 247 247 239 237 223 209 206 205 197 187 155 123 93 80 51 85 85 103 126 135 138 126 116 123 119 117 131 120 122 127 168 43 61 123 73 239 343 337 331 343 60 59
226 223 222 237 229 233 223 202 191 197 188 154 147 158 165 170 181 120 123 114 122 128 126 121 125 121 119 120 154 144 130 128 124 77 48 69 134 151 325 340 353 20 42
233 235 230 222 227 226 231 245 216 178 195 174 170 163 152 113 118 121 123 116 119 126 137 123 124 122 132 125 121 101 108 104 115 103 124 54 37 75 126 282 311 339 340
121 199 215 204 238 212 265 204 199 250 196 178 172 161 149 142 144 149 135 136 132 131 135 120 117 117 117 118 116 102 90 104 96 97 101 126 147 189 127 262 302 269 288
57 23 6 264 227 204 183 220 222 236 227 168 156 152 152 155 160 160 154 151 145 147 141 130 130 126 122 128 120 106 118 103 99 111 118 109 142 141 130 149 262 275 302
331 284 241 196 249 251 237 204 207 238 171 151 140 132 137 138 140 151 154 153 158 153 137 129 124 122 117 120 108 105 109 105 110 120 118 127 121 105 155 183 183 307 271
6 349 341 344 304 225 231 218 213 196 143 134 132 133 133 139 144 142 143 150 140 142 132 127 129 127 127 128 131 119 111 117 131 131 123 121 244 138 177 165 171 183 295
327 303 282 288 295 286 279 206 200 185 152 141 135 130 132 128 134 141 143 144 142 137 132 131 132 137 132 132 128 128 127 135 116 130 139 185 238 231 246 243 231 200 213
285 290 297 276 260 270 257 254 190 147 138 126 122 125 131 134 135 135 142 141 138 138 134 132 129 127 128 129 124 134 130 137 103 102 198 239 238 259 271 261 261 265 231
278 285 276 283 285 266 253 229 203 139 132 130 127 124 127 130 132 135 140 136 137 134 132 130 126 126 122 109 119 130 120 133 145 252 247 259 256 261 253 251 268 238 248
289 296 297 288 266 254 257 235 161 134 131 127 126 127 128 131 136 134 134 134 130 127 128 118 119 119 114 118 102 111 93 84 266 272 263 262 255 268 262 255 249 245 268
324 317 321 320 308 259 211 131 124 126 128 128 130 127 130 133 135 133 130 132 125 123 116 112 111 117 111 95 103 78 56 26 15 341 328 289 267 265 265 250 252 260 261
319 332 351 355 3 31 101 107 114 115 120 121 121 124 133 133 129 125 120 118 120 116 111 111 109 109 98 122 94 72 43 14 346 338 320 297 282 296 297 291 257 251 253
313 27 34 37 28 41 75 94 101 106 116 121 117 122 125 119 126 118 115 115 115 110 111 110 108 104 124 106 87 83 39 360 337 313 309 305 300 283 295 303 301 296 291
48 56 39 57 67 67 71 90 102 109 105 107 107 115 112 103 102 100 106 114 113 113 105 102 118 126 121 108 82 46 30 348 326 319 312 311 314 322 293 291 291 297 297
84 77 62 63 65 76 74 83 93 96 100 100 102 101 91 95 107 115 114 104 105 111 109 116 118 118 129 101 73 49 27 357 339 323 315 312 299 296 305 284 263 258 261
86 85 79 82 74 79 88 90 86 90 93 95 96 96 103 126 113 104 121 118 118 102 107 125 117 104 122 140 103 82 51 358 317 298 300 301 298 305 311 309 276 274 271
90 90 92 90 89 84 85 84 78 78 77 81 96 104 123 116 119 135 110 92 102 122 117 103 115 155 150 187 328 24 140 277 278 282 287 306 319 318 312 314 315 311 299
98 91 88 88 93 92 91 88 86 74 73 81 93 104 116 122 131 101 94 106 108 95 100 92 68 92 153 326 337 330 226 260 286 294 304 297 313 314 323 319 323 299 305
104 106 101 93 87 96 99 105 106 115 113 107 88 86 99 110 107 109 107 91 99 98 99 93 59 44 28 7 356 355 347 335 335 308 292 284 311 327 323 324 315 317 332
130 123 116 119 113 105 115 118 113 112 119 130 140 144 131 121 115 103 100 91 93 100 82 70 61 15 6 3 357 350 344 337 327 303 305 326 328 326 328 318 324 328 315
140 140 136 128 123 133 125 128 137 145 143 124 115 116 122 104 85 82 91 102 91 81 71 60 41 358 346 341 324 312 315 308 307 297 302 327 332 326 319 321 314 302 301
139 138 135 124 125 126 126 135 137 133 124 126 134 120 102 100 93 81 106 99 82 113 109 113 68 11 345 312 334 335 322 310 323 341 348 331 326 323 319 317 314 309 306
128 134 134 132 131 130 127 127 132 138 144 133 115 119 112 107 99 100 69 57 98 79 72 79 72 252 299 328 338 331 331 343 340 4 333 323 319 315 316 317 312 306 306